Location: Bouysse
(45.3674°N, 1.8947°E)
Time: 16:32:05
(UTC+00:00)

USA 229 DEB - Pass Details

Date: 07 June 2020
Orbit: 983 x 1229 km, 63.4° (Epoch: 24 June)

Event Time Altitude Azimuth Distance (km) Brightness Sun altitude
Rises 01:06:11 0° 322° (NW) 3,946 7.1 -19.8°
Reaches altitude 10° 01:08:50 10° 324° (NW) 3,020 6.5 -19.6°
Maximum altitude 01:16:05 72° 49° (NE) 1,235 4.1 -19.2°
Drops below altitude 10° 01:23:41 10° 134° (SE) 3,154 5.9 -18.7°
Sets 01:26:30 0° 136° (SE) 4,132 6.5 -18.5°
